DW3248 Amsterdam NL current weather conditions

sailwx.info

Wind from 034 at 2 knots gusting 3

Air temperature 6.1° C
Dewpoint 3.4° C

Last reported at 2018-Nov-17 17:06 UTC.
Time now 2018-Nov-17 17:45 UTC

Location: N 52°18' E 004°58'.
View on Google Maps.

See reports from other nearby stations

  
Tides and Currents Weather Stations Pressure Air Temp Water Temp Dewpoint Dewpoint Depression Visibility Wind Speed Wind Dir Waves Ship Positions
date/time (UTC)wind fromknots sea level pressurealtimeterstation pressurevisibilityair tempwater tempwave heightnotes
2018-Nov-17 17:06 034 2 gusting 3 6.1
2018-Nov-17 17:01 037 2 gusting 6 6.1
2018-Nov-17 16:56 061 2 gusting 5 6.1
2018-Nov-17 16:51 041 2 gusting 5 6.1
2018-Nov-17 16:46 036 2 gusting 5 6.1
2018-Nov-17 16:41 046 2 gusting 6 6.1
2018-Nov-17 16:36 040 2 gusting 5 6.1
2018-Nov-17 16:33 041 2 gusting 4 6.7
2018-Nov-17 16:26 044 2 gusting 6 6.7
2018-Nov-17 16:21 039 1 gusting 3 6.7
2018-Nov-17 16:16 031 2 gusting 5 6.7
2018-Nov-17 16:11 055 2 gusting 4 6.7
2018-Nov-17 16:06 055 2 gusting 5 6.7
2018-Nov-17 16:01 038 2 gusting 6 6.7
2018-Nov-17 15:56 052 2 gusting 5 6.7
2018-Nov-17 15:51 040 2 gusting 4 6.7
2018-Nov-17 15:46 046 2 gusting 4 6.7
2018-Nov-17 15:41 062 2 gusting 5 7.2
2018-Nov-17 15:36 051 2 gusting 6 7.2
2018-Nov-17 15:31 050 2 gusting 4 7.2
2018-Nov-17 15:26 045 2 gusting 5 7.2
2018-Nov-17 15:21 049 1 gusting 4 7.2
2018-Nov-17 15:16 064 1 gusting 4 7.2
2018-Nov-17 15:11 087 2 gusting 4 7.2
2018-Nov-17 15:06 060 2 gusting 4 7.8
2018-Nov-17 15:01 045 2 gusting 4 7.8
2018-Nov-17 14:56 055 2 gusting 3 7.8
2018-Nov-17 14:51 042 2 gusting 4 7.8
2018-Nov-17 14:46 034 2 gusting 6 7.8
2018-Nov-17 14:41 036 2 gusting 4 7.8
2018-Nov-17 14:36 036 2 gusting 6 7.8
2018-Nov-17 14:31 028 2 gusting 5 7.8
2018-Nov-17 14:26 039 2 gusting 6 7.8
2018-Nov-17 14:21 062 2 gusting 5 7.8
2018-Nov-17 14:16 083 2 gusting 6 7.8
2018-Nov-17 14:11 086 2 gusting 5 7.8
2018-Nov-17 14:06 070 2 gusting 6 7.8
2018-Nov-17 14:01 044 2 gusting 3 8.3
2018-Nov-17 13:56 044 2 gusting 6 7.8
2018-Nov-17 13:51 081 2 gusting 6 7.8
2018-Nov-17 13:46 112 2 gusting 4 7.8
2018-Nov-17 13:41 096 2 gusting 5 7.8
2018-Nov-17 13:36 097 2 gusting 6 7.8
2018-Nov-17 13:31 065 3 gusting 6 7.8
2018-Nov-17 13:26 060 2 gusting 5 7.8
2018-Nov-17 13:21 076 2 gusting 6 7.8
2018-Nov-17 13:16 072 2 gusting 5 7.8
2018-Nov-17 13:11 085 2 gusting 4 7.8
2018-Nov-17 13:06 060 2 gusting 4 7.8
2018-Nov-17 13:01 064 2 gusting 5 7.8
2018-Nov-17 12:56 112 3 gusting 6 7.8
2018-Nov-17 12:51 117 3 gusting 5 7.8
2018-Nov-17 12:46 097 3 gusting 5 7.8
2018-Nov-17 12:41 124 3 gusting 6 7.2
2018-Nov-17 12:36 097 3 gusting 6 7.8
2018-Nov-17 12:31 082 3 gusting 4 7.2
2018-Nov-17 12:26 120 3 gusting 6 7.2
2018-Nov-17 12:21 097 3 gusting 7 7.2
2018-Nov-17 12:16 097 3 gusting 5 7.2
2018-Nov-17 12:11 095 3 gusting 6 6.7
2018-Nov-17 12:06 113 3 gusting 6 6.7
2018-Nov-17 12:01 140 3 gusting 6 6.7
2018-Nov-17 11:56 113 3 gusting 6 6.7
2018-Nov-17 11:51 094 3 gusting 6 6.7
2018-Nov-17 11:46 120 3 gusting 9 6.7
2018-Nov-17 11:41 110 3 gusting 6 6.1
2018-Nov-17 11:36 101 3 gusting 8 6.1
2018-Nov-17 11:31 129 2 gusting 6 6.1
2018-Nov-17 11:26 134 2 gusting 6 6.1
2018-Nov-17 11:21 104 3 gusting 5 6.1
2018-Nov-17 11:16 119 3 gusting 5 5.6
2018-Nov-17 11:11 136 3 gusting 9 5.6
2018-Nov-17 11:06 108 3 gusting 6 5.6
2018-Nov-17 11:01 098 3 gusting 7 5.6
2018-Nov-17 10:56 104 3 gusting 5 5.6
2018-Nov-17 10:51 128 3 gusting 6 5.0
2018-Nov-17 10:46 153 3 gusting 6 5.0
2018-Nov-17 10:41 140 4 gusting 6 5.0
2018-Nov-17 10:36 099 4 gusting 9 5.0
2018-Nov-17 10:31 074 3 gusting 6 5.0
2018-Nov-17 10:26 111 4 gusting 6 4.4
2018-Nov-17 10:21 126 4 gusting 6 4.4
2018-Nov-17 10:16 119 3 gusting 6 4.4
2018-Nov-17 10:11 126 2 gusting 6 4.4
2018-Nov-17 10:06 138 2 gusting 6 4.4
2018-Nov-17 10:01 148 3 gusting 5 4.4
2018-Nov-17 09:56 141 3 gusting 6 3.9
2018-Nov-17 09:51 118 3 gusting 6 3.9
2018-Nov-17 09:46 130 3 gusting 6 3.9
2018-Nov-17 09:41 150 4 gusting 5 3.9
2018-Nov-17 09:36 139 4 gusting 9 3.3
2018-Nov-17 09:31 131 3 gusting 7 3.3
2018-Nov-17 09:26 088 2 gusting 6 3.3
2018-Nov-17 09:21 089 2 gusting 5 3.3
2018-Nov-17 09:16 111 3 gusting 5 3.3
2018-Nov-17 09:11 134 3 gusting 6 3.3
2018-Nov-17 09:06 141 3 gusting 6 3.3
2018-Nov-17 09:01 112 3 gusting 6 2.8
2018-Nov-17 08:56 103 4 gusting 5 2.8
2018-Nov-17 08:51 068 4 gusting 8 2.8
2018-Nov-17 08:46 095 4 gusting 6 2.8
2018-Nov-17 08:41 139 3 gusting 7 2.8
2018-Nov-17 08:36 135 4 gusting 6 2.8
2018-Nov-17 08:31 132 5 gusting 7 2.8
2018-Nov-17 08:26 128 5 gusting 8 2.8
2018-Nov-17 08:21 140 4 gusting 8 2.8
2018-Nov-17 08:16 140 4 gusting 6 2.8
2018-Nov-17 08:11 150 3 gusting 6 2.8
2018-Nov-17 08:06 137 3 gusting 5 2.8
2018-Nov-17 08:01 117 2 gusting 6 2.2
2018-Nov-17 07:56 137 2 gusting 6 2.2
2018-Nov-17 07:51 130 2 gusting 6 2.2
2018-Nov-17 07:46 125 2 gusting 5 2.2
2018-Nov-17 07:41 106 2 gusting 3 2.2
2018-Nov-17 07:36 103 2 gusting 5 2.2
2018-Nov-17 07:31 114 2 gusting 4 2.2
2018-Nov-17 07:26 128 3 gusting 5 2.2
2018-Nov-17 07:21 143 3 gusting 6 2.2
2018-Nov-17 07:16 135 3 gusting 6 2.2
2018-Nov-17 07:11 132 4 gusting 6 2.2
2018-Nov-17 07:06 133 4 gusting 6 2.2
2018-Nov-17 07:01 099 4 gusting 6 2.2
2018-Nov-17 06:56 090 4 gusting 7 2.2
2018-Nov-17 06:51 105 4 gusting 9 2.2
2018-Nov-17 06:46 108 3 gusting 6 2.2
2018-Nov-17 06:41 090 4 gusting 6 2.2
2018-Nov-17 06:36 111 3 gusting 6 2.2
2018-Nov-17 06:31 162 2 gusting 6 2.2
2018-Nov-17 06:26 136 2 gusting 3 2.2
2018-Nov-17 06:21 104 1 gusting 5 2.2
2018-Nov-17 06:16 115 1 gusting 5 2.2
2018-Nov-17 06:11 114 1 gusting 2 2.2
2018-Nov-17 06:06 124 1 gusting 4 2.2
2018-Nov-17 06:01 096 1 gusting 3 2.2
2018-Nov-17 05:56 082 1 gusting 4 2.2
2018-Nov-17 05:51 077 1 gusting 3 2.2
2018-Nov-17 05:46 050 0 gusting 2 2.2
2018-Nov-17 05:41 047 0 gusting 2 2.2
2018-Nov-17 05:36 036 0 gusting 2 2.2
2018-Nov-17 05:31 034 0 gusting 1 2.2
2018-Nov-17 05:26 041 0 gusting 2 2.2
2018-Nov-17 05:21 048 0 gusting 2 2.2
2018-Nov-17 05:16 053 1 gusting 2 2.2
2018-Nov-17 05:11 060 1 gusting 3 2.2
2018-Nov-17 05:06 062 1 gusting 2 2.2
2018-Nov-17 05:01 053 0 gusting 2 2.2
2018-Nov-17 04:56 051 0 gusting 2 2.2
2018-Nov-17 04:51 038 0 gusting 1 2.2
2018-Nov-17 04:46 028 0 gusting 2 2.2
2018-Nov-17 04:41 019 2.2
2018-Nov-17 04:36 016 0 gusting 1 2.2
2018-Nov-17 04:31 026 0 gusting 1 2.2
2018-Nov-17 04:26 029 0 gusting 2 2.2
2018-Nov-17 04:21 040 0 gusting 1 2.8
2018-Nov-17 04:16 038 0 gusting 2 2.8
2018-Nov-17 04:11 026 0 gusting 2 2.8
2018-Nov-17 04:06 048 0 gusting 2 2.8
2018-Nov-17 04:01 063 1 gusting 3 3.3
2018-Nov-17 03:56 068 1 gusting 2 3.3
2018-Nov-17 03:51 077 1 gusting 4 3.3
2018-Nov-17 03:46 076 1 gusting 3 3.3
2018-Nov-17 03:41 049 1 gusting 3 3.3
2018-Nov-17 03:36 055 0 gusting 3 3.3
2018-Nov-17 03:31 102 1 gusting 2 3.3
2018-Nov-17 03:26 061 1 gusting 1 3.3
2018-Nov-17 03:21 112 2 gusting 4 3.9
2018-Nov-17 03:16 161 2 gusting 4 3.9
2018-Nov-17 03:11 122 2 gusting 5 3.9
2018-Nov-17 03:06 117 2 gusting 4 3.9
2018-Nov-17 03:01 139 1 gusting 4 3.9
2018-Nov-17 02:56 114 1 gusting 2 3.9
2018-Nov-17 02:51 121 1 gusting 3 3.9
2018-Nov-17 02:46 101 2 gusting 3 3.9
2018-Nov-17 02:41 083 1 gusting 4 3.9
2018-Nov-17 02:36 143 1 gusting 3 3.9
2018-Nov-17 02:31 144 2 gusting 3 3.9
2018-Nov-17 02:26 096 2 gusting 5 3.9
2018-Nov-17 02:21 068 2 gusting 6 3.9
2018-Nov-17 02:16 088 2 gusting 5 3.9
2018-Nov-17 02:11 118 2 gusting 4 3.9
2018-Nov-17 02:06 130 2 gusting 5 3.9
2018-Nov-17 02:01 135 2 gusting 5 3.9
2018-Nov-17 01:56 134 1 gusting 3 3.9
2018-Nov-17 01:51 116 0 gusting 4 3.9
2018-Nov-17 01:46 102 0 gusting 3 3.9
2018-Nov-17 01:41 097 0 gusting 1 3.9
2018-Nov-17 01:36 078 0 gusting 2 3.3
2018-Nov-17 01:31 053 0 gusting 1 3.9
2018-Nov-17 01:26 053 0 gusting 1 3.3
2018-Nov-17 01:21 087 0 gusting 2 3.3
2018-Nov-17 01:16 091 0 gusting 3 3.3
2018-Nov-17 01:11 064 0 gusting 2 3.3
2018-Nov-17 01:06 049 0 gusting 1 3.3
2018-Nov-17 01:01 061 0 gusting 1 3.3
2018-Nov-17 00:56 050 0 gusting 1 3.3
2018-Nov-17 00:51 054 0 gusting 1 3.3
2018-Nov-17 00:46 052 0 gusting 2 3.9
2018-Nov-17 00:41 048 0 gusting 0 3.9
2018-Nov-17 00:36 044 0 gusting 1 3.9
2018-Nov-17 00:31 037 0 gusting 1 3.9
2018-Nov-17 00:26 051 0 gusting 1 3.9
2018-Nov-17 00:21 063 0 gusting 1 4.4
2018-Nov-17 00:16 055 0 gusting 1 4.4
2018-Nov-17 00:11 032 0 gusting 1 4.4
2018-Nov-17 00:06 036 1 gusting 2 4.4
2018-Nov-17 00:01 109 1 gusting 4 4.4
2018-Nov-16 23:56 117 1 gusting 3 4.4
2018-Nov-16 23:51 083 1 gusting 3 4.4
2018-Nov-16 23:46 138 1 gusting 5 4.4
2018-Nov-16 23:41 151 2 gusting 3 4.4
2018-Nov-16 23:36 131 2 gusting 4 4.4
2018-Nov-16 23:31 119 2 gusting 4 5.0
2018-Nov-16 23:26 107 1 gusting 4 4.4
2018-Nov-16 23:21 085 2 gusting 4 5.0
2018-Nov-16 23:16 069 2 gusting 3 5.0
2018-Nov-16 23:11 098 2 gusting 5 5.0
2018-Nov-16 23:06 083 1 gusting 4 4.4
2018-Nov-16 23:01 103 1 gusting 2 4.4
2018-Nov-16 22:56 139 2 gusting 3 5.0
2018-Nov-16 22:51 137 2 gusting 3 5.0
2018-Nov-16 22:46 122 2 gusting 4 5.0
2018-Nov-16 22:41 108 2 gusting 4 5.0
2018-Nov-16 22:36 128 2 gusting 4 5.0
2018-Nov-16 22:31 143 2 gusting 3 5.0
2018-Nov-16 22:26 164 1 gusting 4 5.0
2018-Nov-16 22:21 139 1 gusting 3 4.4
2018-Nov-16 22:16 095 1 gusting 2 4.4
2018-Nov-16 22:11 094 1 gusting 3 4.4
2018-Nov-16 22:06 086 1 gusting 3 4.4
2018-Nov-16 22:01 133 2 gusting 4 4.4
2018-Nov-16 21:56 158 1 gusting 4 4.4
2018-Nov-16 21:51 105 1 gusting 2 4.4
2018-Nov-16 21:46 106 1 gusting 3 4.4
2018-Nov-16 21:41 132 0 gusting 1 3.9
2018-Nov-16 21:36 145 0 gusting 2 3.9
2018-Nov-16 21:31 134 3.9
2018-Nov-16 21:26 058 3.9
2018-Nov-16 21:21 045 3.9
2018-Nov-16 21:16 056 3.9
2018-Nov-16 21:11 057 0 gusting 0 4.4
2018-Nov-16 21:06 046 0 gusting 1 4.4
2018-Nov-16 21:01 044 0 gusting 1 4.4
2018-Nov-16 20:56 054 0 gusting 2 4.4
2018-Nov-16 20:51 049 0 gusting 1 4.4
2018-Nov-16 20:46 036 0 gusting 1 4.4
2018-Nov-16 20:41 037 0 gusting 1 4.4
2018-Nov-16 20:36 039 0 gusting 2 4.4
2018-Nov-16 20:31 029 0 gusting 1 4.4
2018-Nov-16 20:26 033 0 gusting 2 4.4
2018-Nov-16 20:21 051 0 gusting 1 4.4
2018-Nov-16 20:16 065 0 gusting 2 5.0
2018-Nov-16 20:11 067 0 gusting 2 5.0
2018-Nov-16 20:06 062 0 gusting 2 5.0
2018-Nov-16 20:01 054 0 gusting 2 4.4
2018-Nov-16 19:56 045 4.4
2018-Nov-16 19:51 030 0 gusting 1 5.0
2018-Nov-16 19:46 008 0 gusting 1 5.0
2018-Nov-16 19:41 013 4.4
2018-Nov-16 19:36 026 0 gusting 2 5.0
2018-Nov-16 19:31 020 0 gusting 1 5.0
2018-Nov-16 19:26 006 0 gusting 1 5.0
2018-Nov-16 19:21 353 0 gusting 2 4.4
2018-Nov-16 19:16 360 0 gusting 1 4.4
2018-Nov-16 19:11 012 0 gusting 1 4.4
2018-Nov-16 19:06 031 0 gusting 1 4.4
2018-Nov-16 19:01 053 4.4
2018-Nov-16 18:56 055 4.4
2018-Nov-16 18:51 013 0 gusting 2 4.4
2018-Nov-16 18:46 355 4.4
2018-Nov-16 18:41 002 0 gusting 1 4.4
2018-Nov-16 18:36 358 0 gusting 1 4.4
2018-Nov-16 18:31 349 0 gusting 1 3.9
2018-Nov-16 18:26 016 3.3
2018-Nov-16 18:21 052 3.3
2018-Nov-16 18:16 032 3.3
2018-Nov-16 18:11 038 3.3
2018-Nov-16 18:06 088 3.3
2018-Nov-16 18:01 126 3.3
2018-Nov-16 17:56 093 3.3
2018-Nov-16 17:51 076 3.3
2018-Nov-16 17:46 073 3.3
2018-Nov-16 17:41 065 3.9
2018-Nov-16 17:36 042 3.9
2018-Nov-16 17:31 029 3.9
2018-Nov-16 17:26 031 0 gusting 0 3.9
2018-Nov-16 17:21 038 3.9
2018-Nov-16 17:16 038 3.9
2018-Nov-16 17:11 044 3.9
2018-Nov-16 17:06 067 3.3
2018-Nov-16 17:01 083 0 gusting 0 3.9
2018-Nov-16 16:56 074 0 gusting 2 3.9
2018-Nov-16 16:51 051 3.3
2018-Nov-16 16:46 054 3.3
2018-Nov-16 16:41 087 3.3
2018-Nov-16 16:36 055 3.3
2018-Nov-16 16:31 030 3.9
2018-Nov-16 16:26 032 3.3
2018-Nov-16 16:21 023 3.3
2018-Nov-16 16:16 023 3.3
2018-Nov-16 16:11 038 3.3
2018-Nov-16 16:06 043 3.3
2018-Nov-16 16:01 079 3.9
2018-Nov-16 15:56 153 3.9
2018-Nov-16 15:51 065 3.9
2018-Nov-16 15:46 086 3.9
2018-Nov-16 15:41 085 4.4
2018-Nov-16 15:36 037 4.4
2018-Nov-16 15:31 033 0 4.4
2018-Nov-16 15:26 020 0 gusting 2 4.4
2018-Nov-16 15:21 019 4.4
2018-Nov-16 15:16 028 4.4
2018-Nov-16 15:11 030 0 gusting 1 4.4
2018-Nov-16 15:06 032 4.4
2018-Nov-16 15:01 027 4.4
2018-Nov-16 14:56 054 4.4
2018-Nov-16 14:51 117 4.4
2018-Nov-16 14:46 130 4.4
2018-Nov-16 14:41 160 4.4
2018-Nov-16 14:36 170 0 gusting 1 4.4
2018-Nov-16 14:31 164 0 gusting 1 4.4
2018-Nov-16 14:26 158 4.4
2018-Nov-16 14:21 175 4.4
2018-Nov-16 14:16 184 0 gusting 1 4.4
2018-Nov-16 14:11 160 0 gusting 1 4.4
2018-Nov-16 14:06 148 1 gusting 3 4.4
2018-Nov-16 14:01 129 1 gusting 1 4.4
2018-Nov-16 13:56 133 1 gusting 4 4.4
2018-Nov-16 13:51 134 0 gusting 2 4.4
2018-Nov-16 13:46 102 0 gusting 2 4.4
2018-Nov-16 13:41 134 4.4
2018-Nov-16 13:36 118 4.4
2018-Nov-16 13:31 105 0 gusting 0 3.9
2018-Nov-16 13:26 153 1 gusting 2 3.9
2018-Nov-16 13:21 147 1 gusting 4 3.9
2018-Nov-16 13:16 097 1 gusting 5 3.9
2018-Nov-16 13:11 092 1 gusting 3 3.9
2018-Nov-16 13:06 120 1 gusting 3 3.9
2018-Nov-16 13:01 101 0 gusting 1 3.9
2018-Nov-16 12:56 107 0 gusting 4 3.3
2018-Nov-16 12:51 105 0 gusting 2 3.3
2018-Nov-16 12:46 084 0 gusting 2 3.9
2018-Nov-16 12:41 125 0 gusting 1 3.3
2018-Nov-16 12:36 090 0 gusting 1 3.3
2018-Nov-16 12:31 043 0 gusting 2 3.3
2018-Nov-16 12:26 062 3.3
2018-Nov-16 12:21 157 0 gusting 0 3.3
2018-Nov-16 12:16 165 0 gusting 2 3.3
2018-Nov-16 12:11 146 1 gusting 3 3.3
2018-Nov-16 12:06 125 1 gusting 3 3.3
2018-Nov-16 12:01 135 0 gusting 4 3.9
2018-Nov-16 11:56 116 0 gusting 2 3.3
2018-Nov-16 11:51 131 1 gusting 3 3.3
2018-Nov-16 11:46 149 0 gusting 2 3.9
2018-Nov-16 11:41 148 0 gusting 3 3.9
2018-Nov-16 11:36 201 3.3
2018-Nov-16 11:31 345 0 gusting 0 3.3
2018-Nov-16 11:26 112 0 gusting 2 3.3
2018-Nov-16 11:21 145 0 gusting 3 3.9
2018-Nov-16 11:16 126 0 gusting 2 3.9
2018-Nov-16 11:11 143 3.9
2018-Nov-16 11:06 200 3.9
2018-Nov-16 11:01 245 3.9
2018-Nov-16 10:56 226 3.9
2018-Nov-16 10:51 162 0 gusting 0 3.9
2018-Nov-16 10:46 138 1 gusting 1 3.3
2018-Nov-16 10:41 099 1 gusting 2 3.3
2018-Nov-16 10:36 115 1 gusting 4 3.3
2018-Nov-16 10:31 140 1 gusting 2 3.3
2018-Nov-16 10:26 154 1 gusting 2 3.3
2018-Nov-16 10:21 169 2 gusting 4 3.3
2018-Nov-16 10:16 140 2 gusting 4 3.3
2018-Nov-16 10:11 104 2 gusting 3 3.3
2018-Nov-16 10:06 111 2 gusting 4 3.3
2018-Nov-16 10:01 144 1 gusting 5 3.3
2018-Nov-16 09:56 160 1 gusting 3 3.3
2018-Nov-16 09:51 141 1 gusting 3 3.3
2018-Nov-16 09:46 149 2 gusting 4 3.3
2018-Nov-16 09:41 150 2 gusting 5 3.3
2018-Nov-16 09:36 144 2 gusting 4 3.3
2018-Nov-16 09:31 158 2 gusting 4 3.3
2018-Nov-16 09:26 138 1 gusting 4 3.3
2018-Nov-16 09:21 109 1 gusting 4 3.3
2018-Nov-16 09:16 153 1 gusting 3 3.3
2018-Nov-16 09:11 170 1 gusting 3 3.3
2018-Nov-16 09:06 168 1 gusting 4 3.3
2018-Nov-16 09:01 161 1 gusting 2 3.3
2018-Nov-16 08:56 158 1 gusting 3 3.3
2018-Nov-16 08:51 155 1 gusting 4 3.3
2018-Nov-16 08:46 146 1 gusting 3 3.3
2018-Nov-16 08:41 141 1 gusting 3 3.3
2018-Nov-16 08:36 117 1 gusting 3 3.3
2018-Nov-16 08:31 139 1 gusting 3 3.3
2018-Nov-16 08:26 164 1 gusting 4 3.3
2018-Nov-16 08:21 158 1 gusting 4 3.3
2018-Nov-16 08:16 170 1 gusting 4 3.3
2018-Nov-16 08:11 170 2 gusting 5 3.3
2018-Nov-16 08:06 155 2 gusting 6 3.3
2018-Nov-16 08:01 161 2 gusting 6 2.8
2018-Nov-16 07:56 146 2 gusting 6 2.8
2018-Nov-16 07:51 148 2 gusting 6 2.8
2018-Nov-16 07:46 168 2 gusting 5 2.8
2018-Nov-16 07:41 156 2 gusting 5 2.8
2018-Nov-16 07:36 163 2 gusting 6 2.2
2018-Nov-16 07:31 168 1 gusting 5 2.2
2018-Nov-16 07:26 162 1 gusting 3 2.2
2018-Nov-16 07:21 158 1 gusting 3 2.2
2018-Nov-16 07:16 158 2 gusting 4 2.2
2018-Nov-16 07:11 161 1 gusting 5 2.2
2018-Nov-16 07:06 159 1 gusting 3 2.2
2018-Nov-16 07:01 151 2 gusting 4 1.7
2018-Nov-16 06:56 147 2 gusting 6 1.7
2018-Nov-16 06:51 134 2 gusting 3 1.7
2018-Nov-16 06:46 114 2 gusting 3 1.7
2018-Nov-16 06:41 140 2 gusting 4 1.7
2018-Nov-16 06:36 141 1 gusting 5 1.7
2018-Nov-16 06:31 121 1 gusting 4 1.7
2018-Nov-16 06:26 156 1 gusting 4 1.7
2018-Nov-16 06:21 155 1 gusting 3 1.7
2018-Nov-16 06:16 156 1 gusting 5 1.7
2018-Nov-16 06:11 166 1 gusting 3 1.7
2018-Nov-16 06:06 161 1 gusting 5 1.7
2018-Nov-16 06:01 152 1 gusting 2 1.7
2018-Nov-16 05:56 144 0 gusting 3 2.2
2018-Nov-16 05:51 150 1 gusting 2 2.2
2018-Nov-16 05:46 136 1 gusting 3 1.7
2018-Nov-16 05:41 140 0 gusting 3 1.7
2018-Nov-16 05:36 160 0 gusting 1 1.7
2018-Nov-16 05:31 165 1.7
2018-Nov-16 05:26 163 1.7
2018-Nov-16 05:21 157 1.1
2018-Nov-16 05:16 147 1.1
2018-Nov-16 05:11 150 1.1
2018-Nov-16 05:06 173 1.7
2018-Nov-16 05:01 172 1.7
2018-Nov-16 04:56 168 1.7
2018-Nov-16 04:51 171 1.7
2018-Nov-16 04:46 165 1.7
2018-Nov-16 04:41 164 0 gusting 1 1.7
2018-Nov-16 04:36 155 0 gusting 2 1.7
2018-Nov-16 04:31 155 1.7
2018-Nov-16 04:26 165 1.7
2018-Nov-16 04:21 159 1.7
2018-Nov-16 04:16 148 1.7
2018-Nov-16 04:11 154 1.7
2018-Nov-16 04:06 176 0 gusting 1 2.2
2018-Nov-16 04:01 164 0 gusting 2 2.2
2018-Nov-16 03:56 165 0 gusting 2 2.2
2018-Nov-16 03:51 154 2.2
2018-Nov-16 03:46 139 2.2
2018-Nov-16 03:41 173 2.2
2018-Nov-16 03:36 184 0 gusting 0 2.2
2018-Nov-16 03:31 174 0 gusting 1 2.2
2018-Nov-16 03:26 165 0 gusting 2 2.2
2018-Nov-16 03:21 168 0 gusting 2 2.2
2018-Nov-16 03:16 156 2.2
2018-Nov-16 03:11 130 2.2
2018-Nov-16 03:06 144 0 gusting 0 2.2
2018-Nov-16 03:01 150 0 gusting 2 2.2
2018-Nov-16 02:56 134 0 gusting 1 2.2
2018-Nov-16 02:51 107 0 gusting 2 2.2
2018-Nov-16 02:46 099 1 gusting 1 2.2
2018-Nov-16 02:41 131 0 gusting 4 2.8
2018-Nov-16 02:36 150 0 gusting 3 2.8
2018-Nov-16 02:31 128 0 gusting 3 2.8
2018-Nov-16 02:26 139 0 gusting 2 2.8
2018-Nov-16 02:21 168 0 gusting 2 2.8
2018-Nov-16 02:16 166 1 gusting 3 2.8
2018-Nov-16 02:11 165 1 gusting 3 2.8
2018-Nov-16 02:06 150 1 gusting 3 2.8
2018-Nov-16 02:01 143 1 gusting 3 3.3
2018-Nov-16 01:56 166 1 gusting 2 3.3
2018-Nov-16 01:51 154 1 gusting 4 3.3
2018-Nov-16 01:46 115 1 gusting 2 3.3
2018-Nov-16 01:41 143 1 gusting 2 3.3
2018-Nov-16 01:36 156 1 gusting 3 3.3
2018-Nov-16 01:31 140 1 gusting 4 3.3
2018-Nov-16 01:26 148 1 gusting 4 3.3
2018-Nov-16 01:21 133 0 gusting 4 3.3
2018-Nov-16 01:16 147 0 gusting 3 3.3
2018-Nov-16 01:11 167 1 gusting 2 3.3
2018-Nov-16 01:06 164 1 gusting 3 3.3
2018-Nov-16 01:01 159 0 gusting 2 3.3
2018-Nov-16 00:56 159 0 gusting 3 3.3
2018-Nov-16 00:51 161 0 gusting 3 3.3
2018-Nov-16 00:46 167 0 gusting 2 3.9
2018-Nov-16 00:41 170 0 gusting 1 3.9
2018-Nov-16 00:36 162 0 gusting 3 3.9
2018-Nov-16 00:31 156 0 gusting 2 3.9
2018-Nov-16 00:26 160 0 gusting 1 3.9
2018-Nov-16 00:21 160 0 gusting 2 3.9
2018-Nov-16 00:16 130 0 gusting 1 3.9
2018-Nov-16 00:11 143 3.9
2018-Nov-16 00:06 153 4.4
2018-Nov-16 00:01 165 4.4
2018-Nov-15 23:56 174 0 gusting 1 4.4
2018-Nov-15 23:51 168 0 gusting 3 4.4
2018-Nov-15 23:46 164 0 gusting 2 4.4
2018-Nov-15 23:41 155 0 gusting 2 4.4
2018-Nov-15 23:36 144 0 gusting 1 4.4
2018-Nov-15 23:31 155 0 gusting 2 4.4
2018-Nov-15 23:26 154 0 gusting 4 4.4
2018-Nov-15 23:21 155 0 gusting 2 5.0
2018-Nov-15 23:16 175 0 gusting 2 5.0
2018-Nov-15 23:11 182 0 gusting 2 5.0
2018-Nov-15 23:06 165 0 gusting 2 5.0
2018-Nov-15 23:01 160 0 gusting 2 5.0
2018-Nov-15 22:56 169 0 gusting 2 5.0
2018-Nov-15 22:51 159 0 gusting 3 5.0
2018-Nov-15 22:46 144 0 gusting 2 5.0
2018-Nov-15 22:41 152 0 gusting 2 5.6
2018-Nov-15 22:36 165 0 gusting 2 5.6
2018-Nov-15 22:31 173 1 gusting 2 5.6
2018-Nov-15 22:26 168 1 gusting 2 5.6
2018-Nov-15 22:21 153 1 gusting 3 5.6
2018-Nov-15 22:16 158 1 gusting 4 5.6
2018-Nov-15 22:11 165 1 gusting 4 5.6
2018-Nov-15 22:06 166 1 gusting 4 5.6
2018-Nov-15 22:01 158 1 gusting 4 5.6
2018-Nov-15 21:56 152 0 gusting 2 6.1
2018-Nov-15 21:51 160 0 gusting 3 6.1
2018-Nov-15 21:46 165 0 gusting 2 6.1
2018-Nov-15 21:41 161 1 gusting 3 6.1
2018-Nov-15 21:36 157 0 gusting 2 6.1
2018-Nov-15 21:31 157 0 gusting 2 6.1
2018-Nov-15 21:26 165 0 gusting 2 6.1
2018-Nov-15 21:21 159 1 gusting 2 6.1
2018-Nov-15 21:16 164 0 gusting 5 6.1
2018-Nov-15 21:11 174 0 gusting 2 6.7
2018-Nov-15 21:06 159 0 gusting 1 6.7
2018-Nov-15 21:01 149 0 gusting 1 6.7
2018-Nov-15 20:56 150 0 gusting 1 6.7
2018-Nov-15 20:51 162 0 gusting 2 6.7
2018-Nov-15 20:46 167 0 gusting 2 6.7
2018-Nov-15 20:41 141 0 gusting 2 6.7
2018-Nov-15 20:36 137 0 gusting 1 6.7
2018-Nov-15 20:31 170 0 gusting 2 6.7
2018-Nov-15 20:26 171 0 gusting 2 6.7
2018-Nov-15 20:21 149 0 gusting 3 7.2
2018-Nov-15 20:16 142 0 gusting 2 7.2
2018-Nov-15 20:11 155 1 gusting 2 7.2
2018-Nov-15 20:06 163 1 gusting 2 7.2
2018-Nov-15 20:01 163 0 gusting 4 7.2
2018-Nov-15 19:56 162 0 gusting 1 7.2
2018-Nov-15 19:51 158 0 gusting 2 7.8
2018-Nov-15 19:46 158 0 gusting 2 7.8
2018-Nov-15 19:41 160 1 gusting 3 7.8
2018-Nov-15 19:36 170 1 gusting 3 7.8
2018-Nov-15 19:31 175 1 gusting 5 7.8
2018-Nov-15 19:26 155 1 gusting 3 7.8
2018-Nov-15 19:21 118 1 gusting 3 7.8
2018-Nov-15 19:16 126 1 gusting 2 8.3
2018-Nov-15 19:11 157 1 gusting 2 8.3
2018-Nov-15 19:06 167 1 gusting 3 8.3
2018-Nov-15 19:01 166 1 gusting 3 8.3
2018-Nov-15 18:56 168 1 gusting 2 8.3
2018-Nov-15 18:51 174 1 gusting 3 8.3
2018-Nov-15 18:46 179 1 gusting 4 8.3
2018-Nov-15 18:41 168 1 gusting 2 8.3
2018-Nov-15 18:36 163 1 gusting 3 8.9
2018-Nov-15 18:31 168 1 gusting 4 8.9
2018-Nov-15 18:26 140 0 gusting 3 8.3
2018-Nov-15 18:21 142 1 gusting 4 8.9
2018-Nov-15 18:16 154 1 gusting 2 8.9
2018-Nov-15 18:11 148 0 gusting 3 8.9
2018-Nov-15 18:06 155 0 gusting 3 8.9
2018-Nov-15 18:01 159 0 gusting 2 8.3
2018-Nov-15 17:56 150 0 gusting 1 8.3
2018-Nov-15 17:51 136 0 gusting 1 8.3
2018-Nov-15 17:46 128 0 gusting 1 8.3
2018-Nov-15 17:41 137 0 gusting 2 8.3
2018-Nov-15 17:36 158 0 gusting 1 8.3
2018-Nov-15 17:31 154 0 gusting 2 7.8
2018-Nov-15 17:26 148 0 gusting 2 7.8
2018-Nov-15 17:21 152 7.2
2018-Nov-15 17:16 155 7.2
2018-Nov-15 17:11 160 7.2
2018-Nov-15 17:06 158 7.8
2018-Nov-15 17:01 158 7.8